Terug naar catalogus

CZ-3B DEB

ActiefGTO
NORAD 42471·DEBRIS·🇨🇳 China

Gelanceerd Dec 19, 2011 vanaf Xichang Satellite Launch Center

Loading…

TLE

VerouderdSource: Space-Track

Epoch: Sep 8, 2026, 07:09 UTC

1 42471U 11077AL  26251.29845055  .00000113  00000-0  18143-2 0  9992
2 42471  26.1641 287.6150 7467980 161.7252 256.5249  1.89284859 36268

Volg CZ-3B DEB in realtime met AllMySat

Download on the App Store